Location: Moscow
(55.7500°N, 37.5830°E)
Time: 20:30:03
(UTC+03:00)

Tiros 1 despin weight - Pass Details

Date: 06 December 2021
Orbit: 592 x 641 km, 48.2° (Epoch: 21 January)

Event Time Altitude Azimuth Distance (km) Brightness Sun altitude
Rises 17:18:41 0° 266° (W) 2,827 ? -10.2°
Reaches altitude 10° 17:21:23 10° 251° (WSW) 1,923 ? -10.6°
Maximum altitude 17:24:41 21° 202° (SSW) 1,347 ? -11.0°
Drops below altitude 10° 17:28:00 10° 153° (SSE) 1,922 ? -11.4°
Sets 17:30:42 0° 138° (SE) 2,826 ? -11.8°
